(165456) = 2000 YL125

Discovered at Anderson Mesa on 2000-12-29 by LONEOS.

Orbit

Orbit type: Main Belt

Note: WebGL enabled browser required.

epoch2024-03-31.0
epoch JD2460400.5
perihelion date2019-12-08.16577
perihelion JD2458825.66578
argument of perihelion (°)222.93715
ascending node (°)354.29567
inclination (°)12.74829
eccentricity0.1273485
perihelion distance (AU)2.3640017
Tisserand w.r.t. Jupiter3.3
ΔV w.r.t. Earth (km/sec)10.4
semimajor axis (AU)2.7089872
mean anomaly (°)348.11961
mean daily motion (°/day)0.22105160
aphelion distance (AU)3.054
period (years)4.46
P-vector [x]-0.79451448
P-vector [y]-0.48000381
P-vector [z]-0.37194500
Q-vector [x]0.60684897
Q-vector [y]-0.64974669
Q-vector [z]-0.45778114
absolute magnitude14.83
phase slope0.15
uncertainty0
referenceE2024-H18
observations used1091
oppositions15
arc length (days)8509
first opposition used2000
last opposition used2024
residual rms (arc-secs)0.70
perturbers coarse indicatorM-v
perturbers precise indicator003Ek
first observation date used2000-12-29.0
last observation date used2024-04-16.0
computer nameMPCLINUX
JD of orbit computation2456670.731012
perihelion JD uncertainty (days)1.5111E-04
argument of perihelion uncertainty (°)3.3205E-05
ascending node uncertainty (°)1.7491E-05
inclination uncertainty (°)8.2788E-06
eccentricity uncertainty 6.4127E-08
perihelion distance uncertainty (AU)1.7866E-07
Minimum Orbit Intersection Distances (in AU)
for orbit epoch: 2460400.5, reference: E2024-H18
Mercury1.9233
Venus1.65887
Earth1.37588
Mars0.77069
Jupiter1.96879
Saturn6.20496
Uranus15.9207
Neptune26.816

Observations

1075 total observations over interval: 2000 12 29.27149 – 2024 03 20.366249
These data are available for download (format description).

Date (UT) J2000 RA J2000 Dec Magn Location Ref
2000 12 29.27149 08 44 24.16 +35 11 46.3 18.8 R 699 – Lowell Observatory-LONEOS MPS 25520
2000 12 29.29663 08 44 23.07 +35 11 53.0   699 – Lowell Observatory-LONEOS MPS 25520
2000 12 29.32177 08 44 21.83 +35 12 00.4   699 – Lowell Observatory-LONEOS MPS 25520
2000 12 29.34695 08 44 20.61 +35 12 04.8   699 – Lowell Observatory-LONEOS MPS 25520
2001 01 05.30538 08 38 17.55 +35 38 30.9 17.9   704 – Lincoln Laboratory ETS, New Mexico MPS 25520
2001 01 05.32049 08 38 16.69 +35 38 34.2 17.9   704 – Lincoln Laboratory ETS, New Mexico MPS 25520
2001 01 05.33635 08 38 15.71 +35 38 38.7 18.1   704 – Lincoln Laboratory ETS, New Mexico MPS 25520
2001 01 05.35157 08 38 14.86 +35 38 41.4 18.1   704 – Lincoln Laboratory ETS, New Mexico MPS 25520
2001 01 05.36643 08 38 13.95 +35 38 44.5 18.4   704 – Lincoln Laboratory ETS, New Mexico MPS 25520
2001 01 18.34950 08 24 11.48 +36 12 06.4 18.7   704 – Lincoln Laboratory ETS, New Mexico MPS 34385
2001 01 18.36656 08 24 10.22 +36 12 06.9 18.9   704 – Lincoln Laboratory ETS, New Mexico MPS 34385
2001 01 18.38324 08 24 08.95 +36 12 09.1 19.4   704 – Lincoln Laboratory ETS, New Mexico MPS 34385
2001 01 18.40365 08 24 07.48 +36 12 11.4 19.6   704 – Lincoln Laboratory ETS, New Mexico MPS 34385
2001 01 18.42130 08 24 06.28 +36 12 12.0 18.6   704 – Lincoln Laboratory ETS, New Mexico MPS 34385
2001 02 16.22526 07 53 11.17 +35 29 00.6 18.7   704 – Lincoln Laboratory ETS, New Mexico MPS 34385
2001 02 16.23918 07 53 10.37 +35 28 57.2 18.7   704 – Lincoln Laboratory ETS, New Mexico MPS 34385
2001 02 16.25311 07 53 09.73 +35 28 53.8 18.3   704 – Lincoln Laboratory ETS, New Mexico MPS 34385
2001 02 16.26702 07 53 09.02 +35 28 49.7 18.6   704 – Lincoln Laboratory ETS, New Mexico MPS 34385
2001 02 16.28095 07 53 08.35 +35 28 46.7 18.7   704 – Lincoln Laboratory ETS, New Mexico MPS 34385
2001 02 22.125210 07 49 00.619 +35 01 03.64 19.51 V 645 – Apache Point-Sloan Digital Sky Survey MPS 79840
2001 02 22.128682 07 49 00.485 +35 01 02.61 20.36   645 – Apache Point-Sloan Digital Sky Survey MPS 79840
2003 08 25.33048 00 17 04.28 +01 32 33.6 19.0   704 – Lincoln Laboratory ETS, New Mexico MPS 83993
2003 08 25.34356 00 17 03.76 +01 32 32.9 19.4   704 – Lincoln Laboratory ETS, New Mexico MPS 83993
2003 08 25.35602 00 17 03.27 +01 32 31.8 19.5   704 – Lincoln Laboratory ETS, New Mexico MPS 83993
2003 09 02.30409 00 11 16.10 +01 26 11.4 19.3   704 – Lincoln Laboratory ETS, New Mexico MPS 83993
2003 09 02.31573 00 11 15.47 +01 26 11.0 19.6   704 – Lincoln Laboratory ETS, New Mexico MPS 83993
2003 09 02.32738 00 11 14.90 +01 26 10.1 19.4   704 – Lincoln Laboratory ETS, New Mexico MPS 83993
2003 09 02.33893 00 11 14.36 +01 26 09.7 19.3   704 – Lincoln Laboratory ETS, New Mexico MPS 83993
2003 09 02.35057 00 11 13.73 +01 26 08.2 19.8   704 – Lincoln Laboratory ETS, New Mexico MPS 83993
2003 09 17.21859 23 58 06.87 +01 01 16.3 19.3 V 691 – Steward Observatory, Kitt Peak-Spacewatch MPS 84495
2003 09 17.24636 23 58 05.28 +01 01 12.9 19.2 V 691 – Steward Observatory, Kitt Peak-Spacewatch MPS 84495
2003 09 17.27318 23 58 03.73 +01 01 09.7 19.1 V 691 – Steward Observatory, Kitt Peak-Spacewatch MPS 84495
2003 09 17.90685 23 57 27.96 +00 59 50.0 18.8 R 106 – Crni Vrh MPS 84495
2003 09 17.91281 23 57 27.64 +00 59 48.9 18.9 R 106 – Crni Vrh MPS 84495
2003 09 17.92014 23 57 27.22 +00 59 48.0 19.1 R 106 – Crni Vrh MPS 84495
2003 09 19.29656 23 56 09.27 +00 56 57.3 18.6   704 – Lincoln Laboratory ETS, New Mexico MPS 85130
2003 09 19.30900 23 56 08.54 +00 56 55.6 18.9   704 – Lincoln Laboratory ETS, New Mexico MPS 85130
2003 09 19.32129 23 56 07.86 +00 56 54.0 18.8   704 – Lincoln Laboratory ETS, New Mexico MPS 85130
2003 09 19.33335 23 56 07.16 +00 56 52.4 19.5   704 – Lincoln Laboratory ETS, New Mexico MPS 85130
2003 09 19.34555 23 56 06.38 +00 56 51.2 19.1   704 – Lincoln Laboratory ETS, New Mexico MPS 85130
2003 09 26.22772 23 49 37.65 +00 41 59.8 18.9   704 – Lincoln Laboratory ETS, New Mexico MPS 86139
2003 09 26.24025 23 49 36.94 +00 41 57.6 18.9   704 – Lincoln Laboratory ETS, New Mexico MPS 86139
2003 09 26.25289 23 49 36.22 +00 41 55.8 18.7   704 – Lincoln Laboratory ETS, New Mexico MPS 86139
2003 09 26.26555 23 49 35.52 +00 41 54.5 19.3   704 – Lincoln Laboratory ETS, New Mexico MPS 86139
2003 09 26.272770 23 49 35.084 +00 41 53.06 18.98 V 645 – Apache Point-Sloan Digital Sky Survey MPS 136876
2003 09 26.276242 23 49 34.885 +00 41 52.62 19.90   645 – Apache Point-Sloan Digital Sky Survey MPS 136876
2003 09 26.27806 23 49 34.78 +00 41 52.7 19.0   704 – Lincoln Laboratory ETS, New Mexico MPS 86139
2003 09 28.280900 23 47 43.534 +00 37 33.00 19.02 V 645 – Apache Point-Sloan Digital Sky Survey MPS 136876
2003 09 28.284372 23 47 43.337 +00 37 32.49 19.97   645 – Apache Point-Sloan Digital Sky Survey MPS 136876
2003 09 29.21165 23 46 52.52 +00 35 34.1 19.2 V 691 – Steward Observatory, Kitt Peak-Spacewatch MPS 86139
2003 09 29.22625 23 46 51.67 +00 35 33.6 19.4   704 – Lincoln Laboratory ETS, New Mexico MPS 86139
2003 09 29.23905 23 46 50.91 +00 35 31.2 19.9   704 – Lincoln Laboratory ETS, New Mexico MPS 86139
2003 09 29.24530 23 46 50.62 +00 35 29.8 19.1 V 691 – Steward Observatory, Kitt Peak-Spacewatch MPS 86139
2003 09 29.25186 23 46 50.23 +00 35 28.7 19.8   704 – Lincoln Laboratory ETS, New Mexico MPS 86139
2003 09 29.26483 23 46 49.48 +00 35 27.9 19.7   704 – Lincoln Laboratory ETS, New Mexico MPS 86139
2003 09 29.27732 23 46 48.78 +00 35 25.6 20.4   704 – Lincoln Laboratory ETS, New Mexico MPS 86139
2003 09 29.28618 23 46 48.33 +00 35 24.8 19.1 V 691 – Steward Observatory, Kitt Peak-Spacewatch MPS 86139
2003 10 19.199690 23 31 14.557 +00 02 26.59 19.50 V 645 – Apache Point-Sloan Digital Sky Survey MPS 136876
2003 10 19.203162 23 31 14.427 +00 02 26.41 20.44   645 – Apache Point-Sloan Digital Sky Survey MPS 136876
2003 10 20.20401 23 30 38.34 +00 01 31.0 19.2   704 – Lincoln Laboratory ETS, New Mexico MPS 87858
2003 10 20.21552 23 30 37.95 +00 01 30.5 19.4   704 – Lincoln Laboratory ETS, New Mexico MPS 87858
2003 10 20.22732 23 30 37.54 +00 01 30.1 19.3   704 – Lincoln Laboratory ETS, New Mexico MPS 87858
2003 10 20.23904 23 30 37.13 +00 01 29.6 19.8   704 – Lincoln Laboratory ETS, New Mexico MPS 87858
2003 10 20.25087 23 30 36.63 +00 01 29.0 19.6   704 – Lincoln Laboratory ETS, New Mexico MPS 87858
2003 10 22.190770 23 29 30.808 -00 00 03.77 19.52 V 645 – Apache Point-Sloan Digital Sky Survey MPS 136876
2003 10 22.194242 23 29 30.689 -00 00 03.87 20.43   645 – Apache Point-Sloan Digital Sky Survey MPS 136876
2003 10 24.14873 23 28 29.26 -00 01 13.1 19.0   704 – Lincoln Laboratory ETS, New Mexico MPS 87858
2003 10 24.16072 23 28 28.86 -00 01 14.0 19.4   704 – Lincoln Laboratory ETS, New Mexico MPS 87858
2003 10 24.17266 23 28 28.66 -00 01 13.3 19.2   704 – Lincoln Laboratory ETS, New Mexico MPS 87858
2003 10 24.18486 23 28 28.16 -00 01 14.7 18.8   704 – Lincoln Laboratory ETS, New Mexico MPS 87858
2003 10 24.185970 23 28 28.072 -00 01 16.39 19.55 V 645 – Apache Point-Sloan Digital Sky Survey MPS 136876
2003 10 24.189442 23 28 27.961 -00 01 16.51 20.44   645 – Apache Point-Sloan Digital Sky Survey MPS 136876
2003 10 24.19725 23 28 27.78 -00 01 11.4 19.6   704 – Lincoln Laboratory ETS, New Mexico MPS 87858
2006 01 07.47903 12 27 05.76 +00 22 23.2 18.9 V 703 – Catalina Sky Survey MPS 158785
2006 01 07.48773 12 27 06.04 +00 22 17.9 19.1 V 703 – Catalina Sky Survey MPS 158785
2006 01 07.49638 12 27 06.37 +00 22 14.6 19.1 V 703 – Catalina Sky Survey MPS 158785
2006 01 07.50501 12 27 06.69 +00 22 11.2 19.3 V 703 – Catalina Sky Survey MPS 158785
2006 01 08.44727 12 27 43.15 +00 15 19.4 19.0 R 699 – Lowell Observatory-LONEOS MPS 158785
2006 01 08.47462 12 27 44.21 +00 15 08.2   699 – Lowell Observatory-LONEOS MPS 158785
2006 01 08.50200 12 27 45.19 +00 14 55.9   699 – Lowell Observatory-LONEOS MPS 158785
2006 01 08.52935 12 27 46.15 +00 14 43.1   699 – Lowell Observatory-LONEOS MPS 158785
2006 01 23.43248 12 34 46.30 -01 23 49.3 18.9 V 703 – Catalina Sky Survey MPS 160232
2006 01 23.43951 12 34 46.45 -01 23 51.8 19.0 V 703 – Catalina Sky Survey MPS 160232
2006 01 23.44655 12 34 46.52 -01 23 54.8 19.0 V 703 – Catalina Sky Survey MPS 160232
